Regional Weather Roundup
Issued by NWS Columbia, SC

Home | Current Version | Previous Version | Text Only | Print | Product List | Glossary On
Versions: 1 2 3 4 5 6 7 8 9 10 11 12 13 14 15 16 17 18 19 20 21 22 23 24 25 26 27 28 29 30 31 32 33 34 35 36 37 38 39 40 41 42 43 44 45 46 47 48 49 50
000
ASUS42 KCAE 030510
RWRCAE
REGIONAL WEATHER ROUNDUP
NATIONAL WEATHER SERVICE COLUMBIA SC
1200 AM EST TUE MAR 03 2015

NOTE: "FAIR" INDICATES FEW OR NO CLOUDS BELOW 12,000 FEET WITH NO
SIGNIFICANT WEATHER AND/OR OBSTRUCTIONS TO VISIBILITY.

NOT ALL STATIONS ARE QUALITY CONTROLLED BY THE NATIONAL
WEATHER SERVICE. USE DATA WITH CAUTION...ESPECIALLY
DEWPOINT OBSERVATIONS.

SCZ001>056-GAZ040-063>065-077-030600-
...UPSTATE SOUTH CAROLINA...

CITY           SKY/WX    TMP DP  RH WIND       PRES   REMARKS
ANDERSON       CLOUDY    58  49  72 NE10      30.23F
LIBERTY        LGT RAIN  55  38  51 MISG      30.24F
SPARTANBURG    MOCLDY    55  34  44 E7        30.27F
CLEMSON        CLOUDY    57  38  48 E8        30.25F
GREENVILLE     CLOUDY    55  35  47 NE13      30.26F
GREENWOOD      FAIR      56  53  90 NE3       30.25F
GREER          CLOUDY    54  34  46 NE9       30.25F
ROCK HILL      CLOUDY    52  34  50 CALM      30.29F
CHESTER        FAIR      54  41  62 NE5       30.28F
LAURENS        CLOUDY    57  57 100 E5        30.26S


...CENTRAL SOUTH CAROLINA...

CITY           SKY/WX    TMP DP  RH WIND       PRES   REMARKS
COLUMBIA APT   CLOUDY    59  52  77 E6        30.25F
COLUMBIA OWENS CLOUDY    60  51  72 CALM      30.27F
FLORENCE       FAIR      50  47  89 NE5       30.28F
MCENTIRE ANGB  CLOUDY    58  51  77 E7        30.26F
ORANGEBURG     MOCLDY    59  50  72 CALM      30.25F
SUMTER SHAW    CLOUDY    56  51  81 E5        30.25F
NEWBERRY       CLOUDY    55  52  88 NE5       30.28S
AIKEN          FAIR      59  54  82 E7        30.27F
BARNWELL       MOCLDY    63  55  77 E8        30.24F
MANNING        CLOUDY    59  41  51 CALM      30.27F
CAMDEN         CLOUDY    54  50  87 CALM      30.28F
LANCASTER      FAIR      50  45  81 NE8       30.28F
WINNSBORO      MOCLDY    55  52  88 E6        30.26F


...EASTERN AND COASTAL SOUTH CAROLINA...

CITY           SKY/WX    TMP DP  RH WIND       PRES   REMARKS
MYRTLE BEACH   CLOUDY    50  45  81 E17G23    30.32F
N MYRTLE BCH   FAIR      50  43  77 E10       30.31S
CONWAY         CLOUDY    50  48  93 E6        30.31F
MARION         MOCLDY    50  50 100 E5        30.31S
HARTSVILLE     MOCLDY    50  48  93 NE6       30.30S
FLORENCE       FAIR      50  47  89 NE5       30.28F
CHARLESTON APT FAIR      56  51  84 E6        30.28F
MOUNT PLEASANT MOCLDY    55  52  88 CALM      30.28R
WALTERBORO     CLOUDY    59  54  82 E7        30.27F
BEAUFORT       MOCLDY    56  53  90 E5        30.26F


...EASTERN GEORGIA...

CITY           SKY/WX    TMP DP  RH WIND       PRES   REMARKS
AUGUSTA BUSH F CLOUDY    59  56  89 CALM      30.23F
AUGUSTA DANIEL MOCLDY    64  56  75 E7        30.23F
THOMSON        CLOUDY    59  59  99 CALM      30.26F
WASHINGTON     CLOUDY    61  57  88 CALM      30.21F
CLAXTON        CLOUDY    55  55 100 CALM      30.24F
SYLVANIA       CLOUDY    58  58 100 CALM      30.24F
STATESBORO     CLOUDY    59  59 100 CALM      30.23F
SAVANNAH       CLOUDY    60  57  89 CALM      30.24F


...SOUTHERN NORTH CAROLINA...

CITY           SKY/WX    TMP DP  RH WIND       PRES   REMARKS
CHARLOTTE      CLOUDY    52  22  30 NE8G18    30.30F
MONROE         CLOUDY    51  35  54 NE8       30.29F
WADESBORO      CLOUDY    49  37  63 NE5       30.30F
ROCKINGHAM       N/A     49  36  62 NE5       30.30F
RUTHERFORDTON  CLOUDY    51  22  32 E9        30.30F
ASHEVILLE      CLOUDY    40  35  83 CALM      30.30S

$$


USA.gov is the U.S. government's official web portal to all federal, state and local government web resources and services.